This is the latest recevied weather packets stored in our database for station/object N6RDS-8. If no packets are shown the sender has not sent any weather packets the latest 10 day(s).
| Time | Temp. | Humidity | Pressure | Rain* | Wind** | Luminosity | Snow |
|---|---|---|---|---|---|---|---|
| 1777933472 | 25° C | 24% | 1016.7 hPa | 0 mm | - | 129 W/m² | - |
| 1777933169 | 25.56° C | 24% | 1016.7 hPa | 0 mm | - | 144 W/m² | - |
| 1777932866 | 25.56° C | 23% | 1016.8 hPa | 0 mm | - | 136 W/m² | - |
| 1777932563 | 25.56° C | 23% | 1016.8 hPa | 0 mm | - | 111 W/m² | - |
| 1777932259 | 25.56° C | 21% | 1016.9 hPa | 0 mm | - | 109 W/m² | - |
| 1777931957 | 25.56° C | 22% | 1016.8 hPa | 0 mm | - | 120 W/m² | - |
| 1777931653 | 26.11° C | 21% | 1016.9 hPa | 0 mm | - | 130 W/m² | - |
| 1777931350 | 26.11° C | 21% | 1016.7 hPa | 0 mm | - | 157 W/m² | - |
| 1777931046 | 26.11° C | 23% | 1016.9 hPa | 0 mm | - | 166 W/m² | - |
| 1777930743 | 26.11° C | 23% | 1016.9 hPa | 0 mm | - | 224 W/m² | - |
| 1777930439 | 26.11° C | 23% | 1016.9 hPa | 0 mm | - | 220 W/m² | - |
| 1777930137 | 26.11° C | 23% | 1017 hPa | 0 mm | - | 247 W/m² | - |
| 1777929832 | 26.11° C | 23% | 1017.1 hPa | 0 mm | - | 202 W/m² | - |
| 1777929530 | 26.67° C | 24% | 1017.1 hPa | 0 mm | - | 229 W/m² | - |
| 1777929226 | 26.67° C | 24% | 1017 hPa | 0 mm | - | 243 W/m² | - |
| 1777928924 | 26.67° C | 24% | 1017 hPa | 0 mm | - | 269 W/m² | - |
| 1777928620 | 27.22° C | 23% | 1017.1 hPa | 0 mm | - | 303 W/m² | - |
| 1777928318 | 26.67° C | 24% | 1017 hPa | 0 mm | - | 299 W/m² | - |
| 1777928015 | 27.22° C | 23% | 1017.1 hPa | 0 mm | - | 301 W/m² | - |
| 1777927713 | 27.22° C | 23% | 1017.1 hPa | 0 mm | - | 301 W/m² | - |
| 1777927412 | 27.22° C | 22% | 1016.9 hPa | 0 mm | - | 335 W/m² | - |
| 1777927111 | 27.22° C | 22% | 1017.1 hPa | 0 mm | - | 309 W/m² | - |
| 1777926807 | 27.22° C | 21% | 1017.2 hPa | 0 mm | - | 324 W/m² | - |
| 1777926503 | 27.78° C | 21% | 1017.2 hPa | 0 mm | - | 401 W/m² | - |
| 1777926200 | 27.22° C | 21% | 1017.2 hPa | 0 mm | - | 372 W/m² | - |
* Rain latest hour (hover to see other rain measurements)
** Current wind speed in m/s (hover to see current wind gust speed)